• In Czech Republic
  • List of Countries
  • For 7 days
  • Water Temperature
  • Satellite Maps
  • Weather Map
  • Weather Widgets
  • user-avatar
    Login

    Hourly Weather Liverpool

    Today, 21 October, Saturday

    Time Temperature Precipitation Wind Pressure Humidity
    00:00 +8°C° 0 mm 6 mps 760 mmHg 69%
    01:00 +7°C° 0 mm 6 mps 760 mmHg 70%
    02:00 +5°C° 0 mm 6 mps 761 mmHg 71%
    03:00 +5°C° 0 mm 6 mps 761 mmHg 72%
    04:00 +5°C° 0 mm 6 mps 762 mmHg 72%
    05:00 +4°C° 0 mm 6 mps 762 mmHg 72%
    06:00 +5°C° 0 mm 6 mps 763 mmHg 69%
    07:00 +5°C° 0 mm 6 mps 763 mmHg 67%
    08:00 +7°C° 0 mm 6 mps 764 mmHg 65%
    09:00 +8°C° 0 mm 6 mps 764 mmHg 57%
    10:00 +10°C° 0 mm 6 mps 765 mmHg 50%
    11:00 +11°C° 0 mm 6 mps 765 mmHg 43%
    12:00 +13°C° 0 mm 6 mps 765 mmHg 42%
    13:00 +13°C° 0 mm 5 mps 765 mmHg 40%
    14:00 +14°C° 0 mm 5 mps 766 mmHg 38%
    15:00 +13°C° 0 mm 5 mps 766 mmHg 43%
    16:00 +10°C° 0 mm 5 mps 767 mmHg 48%
    17:00 +10°C° 0 mm 4 mps 767 mmHg 53%
    18:00 +8°C° 0 mm 4 mps 768 mmHg 58%
    19:00 +7°C° 0 mm 4 mps 768 mmHg 64%
    20:00 +5°C° 0 mm 4 mps 769 mmHg 69%
    21:00 +5°C° 0 mm 3 mps 769 mmHg 71%
    22:00 +5°C° 0 mm 3 mps 769 mmHg 72%
    23:00 +4°C° 0 mm 3 mps 770 mmHg 74%

    Tomorrow, 22 October, Sunday

    Time Temperature Precipitation Wind Pressure Humidity
    00:00 +4°C° 0 mm 3 mps 770 mmHg 73%
    01:00 +5°C° 0 mm 2 mps 770 mmHg 73%
    02:00 +5°C° 0 mm 2 mps 770 mmHg 73%
    03:00 +5°C° 0 mm 2 mps 771 mmHg 72%
    04:00 +5°C° 0 mm 2 mps 771 mmHg 72%
    05:00 +4°C° 0 mm 2 mps 771 mmHg 72%
    06:00 +5°C° 0 mm 2 mps 771 mmHg 69%
    07:00 +6°C° 0 mm 2 mps 772 mmHg 67%
    08:00 +6°C° 0 mm 2 mps 772 mmHg 64%
    09:00 +9°C° 0 mm 2 mps 772 mmHg 56%
    10:00 +13°C° 0 mm 2 mps 773 mmHg 49%
    11:00 +16°C° 0 mm 1 mps 773 mmHg 41%
    12:00 +16°C° 0 mm 1 mps 773 mmHg 43%
    13:00 +17°C° 0 mm 2 mps 772 mmHg 45%
    14:00 +17°C° 0 mm 2 mps 772 mmHg 46%
    15:00 +16°C° 0 mm 2 mps 772 mmHg 53%
    16:00 +15°C° 0 mm 2 mps 772 mmHg 60%
    17:00 +13°C° 0 mm 2 mps 772 mmHg 67%
    18:00 +12°C° 0 mm 2 mps 772 mmHg 73%
    19:00 +10°C° 0 mm 2 mps 772 mmHg 78%
    20:00 +9°C° 0 mm 2 mps 772 mmHg 84%
    21:00 +9°C° 0 mm 3 mps 772 mmHg 85%
    22:00 +9°C° 0 mm 3 mps 772 mmHg 87%
    23:00 +9°C° 0 mm 3 mps 771 mmHg 89%

    Day after tomorrow, 23 October, Monday

    Time Temperature Precipitation Wind Pressure Humidity
    00:00 +8°C° 0 mm 4 mps 771 mmHg 91%
    01:00 +8°C° 0 mm 4 mps 771 mmHg 92%
    02:00 +8°C° 0 mm 4 mps 770 mmHg 94%
    03:00 +10°C° 0 mm 4 mps 770 mmHg 94%
    04:00 +10°C° 0 mm 4 mps 770 mmHg 95%
    05:00 +10°C° 0 mm 4 mps 770 mmHg 95%
    06:00 +10°C° 0 mm 5 mps 769 mmHg 94%
    07:00 +12°C° 0 mm 5 mps 769 mmHg 93%
    08:00 +12°C° 0 mm 5 mps 769 mmHg 91%
    09:00 +15°C° 0 mm 5 mps 769 mmHg 82%
    10:00 +17°C° 0 mm 5 mps 769 mmHg 72%
    11:00 +20°C° 0 mm 5 mps 768 mmHg 63%
    12:00 +21°C° 0 mm 6 mps 768 mmHg 61%
    13:00 +21°C° 0 mm 6 mps 767 mmHg 59%
    14:00 +22°C° 0 mm 6 mps 767 mmHg 57%
    15:00 +20°C° 0 mm 6 mps 767 mmHg 64%
    16:00 +19°C° 0 mm 6 mps 766 mmHg 71%
    17:00 +17°C° 0 mm 5 mps 766 mmHg 78%
    18:00 +16°C° 0 mm 5 mps 766 mmHg 84%
    19:00 +15°C° 0 mm 5 mps 766 mmHg 90%
    20:00 +14°C° 0 mm 5 mps 766 mmHg 96%
    21:00 +14°C° 0 mm 5 mps 765 mmHg 96%
    22:00 +14°C° 0 mm 5 mps 765 mmHg 96%
    23:00 +14°C° 0 mm 5 mps 765 mmHg 96%

    24 October, Tuesday

    Time Temperature Precipitation Wind Pressure Humidity
    00:00 +14°C° 0 mm 5 mps 765 mmHg 96%
    01:00 +14°C° 0 mm 4 mps 765 mmHg 96%
    02:00 +14°C° 0 mm 4 mps 764 mmHg 96%
    03:00 +15°C° 0 mm 4 mps 764 mmHg 95%
    04:00 +15°C° 0 mm 4 mps 764 mmHg 94%
    05:00 +15°C° 0 mm 4 mps 764 mmHg 93%
    06:00 +17°C° 0.1 mm 4 mps 764 mmHg 93%
    07:00 +17°C° 0.1 mm 4 mps 764 mmHg 93%
    08:00 +16°C° 0.1 mm 5 mps 764 mmHg 92%
    09:00 +19°C° 0 mm 5 mps 764 mmHg 88%
    10:00 +20°C° 0 mm 5 mps 764 mmHg 84%
    11:00 +21°C° 0 mm 5 mps 764 mmHg 79%
    12:00 +22°C° 0 mm 5 mps 763 mmHg 74%
    13:00 +23°C° 0 mm 6 mps 763 mmHg 68%
    14:00 +23°C° 0 mm 6 mps 763 mmHg 63%
    15:00 +22°C° 0 mm 5 mps 763 mmHg 69%
    16:00 +21°C° 0 mm 5 mps 762 mmHg 75%
    17:00 +20°C° 0 mm 5 mps 762 mmHg 82%
    18:00 +19°C° 0 mm 5 mps 762 mmHg 86%
    19:00 +17°C° 0 mm 5 mps 763 mmHg 89%
    20:00 +16°C° 0 mm 5 mps 763 mmHg 93%
    21:00 +17°C° 0 mm 5 mps 762 mmHg 92%
    22:00 +17°C° 0 mm 6 mps 762 mmHg 91%
    23:00 +17°C° 0 mm 6 mps 762 mmHg 90%

    25 October, Wednesday

    Time Temperature Precipitation Wind Pressure Humidity
    00:00 +18°C° 0.1 mm 7 mps 761 mmHg 89%
    01:00 +18°C° 0.1 mm 7 mps 761 mmHg 87%
    02:00 +18°C° 0.1 mm 7 mps 760 mmHg 85%
    03:00 +20°C° 0 mm 8 mps 760 mmHg 85%
    04:00 +20°C° 0 mm 8 mps 760 mmHg 84%
    05:00 +20°C° 0 mm 8 mps 760 mmHg 83%
    06:00 +20°C° 0 mm 8 mps 760 mmHg 82%
    07:00 +21°C° 0 mm 8 mps 760 mmHg 82%
    08:00 +21°C° 0 mm 9 mps 759 mmHg 81%
    09:00 +21°C° 0.2 mm 9 mps 759 mmHg 82%
    10:00 +21°C° 0.2 mm 9 mps 759 mmHg 84%
    11:00 +21°C° 0.2 mm 9 mps 759 mmHg 85%
    12:00 +21°C° 0.5 mm 9 mps 759 mmHg 86%
    13:00 +21°C° 0.5 mm 9 mps 759 mmHg 88%
    14:00 +21°C° 0.5 mm 9 mps 758 mmHg 89%
    15:00 +21°C° 0.6 mm 9 mps 758 mmHg 90%
    16:00 +21°C° 0.6 mm 8 mps 758 mmHg 91%
    17:00 +21°C° 0.6 mm 8 mps 758 mmHg 92%
    18:00 +21°C° 0.6 mm 8 mps 758 mmHg 92%
    19:00 +21°C° 0.6 mm 8 mps 758 mmHg 92%
    20:00 +21°C° 0.6 mm 8 mps 758 mmHg 92%
    21:00 +21°C° 0.8 mm 9 mps 758 mmHg 92%
    22:00 +21°C° 0.8 mm 9 mps 758 mmHg 92%
    23:00 +21°C° 0.8 mm 9 mps 758 mmHg 92%

    26 October, Thursday

    Time Temperature Precipitation Wind Pressure Humidity
    00:00 +21°C° 1.1 mm 9 mps 757 mmHg 92%
    01:00 +21°C° 1.1 mm 10 mps 757 mmHg 92%
    02:00 +21°C° 1.1 mm 10 mps 757 mmHg 92%
    03:00 +21°C° 1 mm 10 mps 757 mmHg 92%
    04:00 +21°C° 1 mm 10 mps 756 mmHg 92%
    05:00 +21°C° 1 mm 10 mps 756 mmHg 92%
    06:00 +21°C° 1 mm 10 mps 756 mmHg 93%
    07:00 +21°C° 1 mm 10 mps 756 mmHg 93%
    08:00 +21°C° 1 mm 10 mps 756 mmHg 93%
    09:00 +21°C° 1 mm 9 mps 756 mmHg 93%
    10:00 +21°C° 1 mm 9 mps 756 mmHg 93%
    11:00 +21°C° 1 mm 9 mps 756 mmHg 93%
    12:00 +21°C° 1.7 mm 9 mps 756 mmHg 93%
    13:00 +21°C° 1.7 mm 9 mps 755 mmHg 94%
    14:00 +21°C° 1.7 mm 9 mps 755 mmHg 94%
    15:00 +21°C° 2.4 mm 8 mps 754 mmHg 94%
    16:00 +20°C° 2.4 mm 8 mps 754 mmHg 95%
    17:00 +20°C° 2.4 mm 8 mps 754 mmHg 95%
    18:00 +20°C° 2.3 mm 8 mps 754 mmHg 95%
    19:00 +20°C° 2.3 mm 8 mps 753 mmHg 96%
    20:00 +20°C° 2.3 mm 7 mps 753 mmHg 96%
    21:00 +20°C° 3.5 mm 8 mps 752 mmHg 96%
    22:00 +19°C° 3.5 mm 9 mps 751 mmHg 96%
    23:00 +19°C° 3.5 mm 11 mps 750 mmHg 95%
    Show more